Airfield :
LOGIN :

Register | Disclaimer

   EN    FR    IT 

 










Legend :    VFR   Marginal VFR   IFR   Intensive IFR   Very Intensive IFR
Visi :
Ceiling :
>= 8 km
>= 3000ft
5 to 8 km
1000 to 3000 ft
1500m to 5 km
500 to 1000 ft
800 to 1500m
200 to 500 ft
< 800m
< 200 ft
Symbols :   Thunderstorms  Fog  Heavy snow  Heavy precipitations  Wind > 20 kt
SIGMETs :     Misc.  Thunderstorms  Icing  Turbulence  Mountain Waves  Volcanic Ashes







- Airport Elevation : 1306 ft
- IATA code : ACH


LSZR - Alten Rhein

CURRENT METAR :
  • 242150Z AUTO 14005KT CAVOK 16/10 Q1020

EXPIRED METARs :
  • 242120Z AUTO 07003KT 030V110 CAVOK 16/10 Q1020
  • 242050Z AUTO 06005KT 020V080 CAVOK 18/09 Q1020
  • 242020Z AUTO 03003KT 350V080 9999 NCD 18/09 Q1020
  • 241950Z AUTO 02005KT 340V070 9999 BKN050 18/10 Q1020
  • 241920Z AUTO 02005KT 330V060 CAVOK 19/09 Q1020

TAF TAF LSZR
Valid from the 24 at 15:00 until the 25 at 00:00 UTC


241425Z 2415/2424 28006KT CAVOK
TEMPO 2415/2424 9999 SCT050
ATIS : +41 71 858 51 66
No reported NOTAMs for that airfield.



MET'MAP, your aeronautical weather chart ! - Copyright ORBIFLY December 2007 - Disclaimer

ORBIFLY MET'MAP TEAM :

Programming & Development : Alexandra Zaïnal
Concept & Development : Baudouin d'Aumeries
Co-Development & Prog : Marc-Olivier Méhu
Technical & hardware support : Manuel Goepfert

Contact : metmap@orbifly.com




SOURCES & CREDITS :

   NOAA